TITAN 3C TRANSTAGE DEB, 38705

Orbit data source: Space-Track

TITAN 3C TRANSTAGE DEB, 38705 is space debris in GEO originally from a launch on Thu, 26 Sep 1968 UTC launched from the Air Force Eastern Test Range (AFETR). Debris objects in space refer to the collection of defunct objects orbiting the Earth. Examples of debris include non-operational satellites, rocket bodies, and fragments generated from explosions, collisions, or faulty payload assembly.

Not visible in the next 10 days
Identifier
38705, 1968-081AF
Orbit
GEO
Country
Flag of USUS
Related business
Manufacturer
Unknown
Mission
Spacecraft
Bus & Motor
Unknown
Mass
Unknown
Launch date (UTC)
1968-09-26 (57 years ago)
Launch vehicle
Unknown
Launch site
Air Force Eastern Test Range (AFETR)
Object type
Payload
Rocket body
Debris
Shape & HBR
Unknown shape, 1.1 m
Radar Cross Section
Small (<0.1 m²)

Expand to show TLE details & history
Last TLE update: 1 day ago

TLE from 1 day ago
0 TITAN 3C TRANSTAGE DEB
1 38705U 68081AF  25305.86418785 -.00000241  00000-0  00000-0 0  9996
2 38705   2.6613  60.3152 0275702 357.1986   2.6102  1.02089968 72746
Epoch: 2025-11-01T20:44Z
TLE epoch observation values (Epoch: 2025-11-01T20:44:25.830Z)
Latitude
-0°
Longitude
67.74806°
Altitude
34,133.125 km
Speed
3.18 km/s
True Right ascension
04h 00m 58s
True Declination
0° 00' 00"
Sunlit
Object was in daylight at epoch
Visualization orbit readout
Latitude
Unknown
Longitude
Unknown
Altitude
Unknown
Speed
Unknown
Apparent Right ascension
Unknown
Apparent Declination
Unknown
Sunlit
N/A
Visualization observer readout
Local Sidereal Time
23:56:47
Azimuth
Unknown
Elevation
Unknown
Doppler factor
Unknown
Orbital elements
Apogee altitude
36,434.229 km
Perigee altitude
34,136.876 km
Semi-major axis
41,663.689 km
Eccentricity
0.02757
Inclination
2.6613°
RAAN
60.3152°
Arg. of periapsis
357.1986°
True anomaly
2.7592°
Mean anomaly
2.6102°
Eccentric anomaly
2.68418°
Mean motion
0.25522 °/min
Orbital period
1,410.57 mins
BSTAR
0
Loading maneuver chart data...
Computing Atmospheric mass density...

Documentation

Showing up to 5 results
|